{"data":{"norad_id":47559,"intl_designator":"2021-009M","name":"STARLINK-1958","alt_names":[],"object_type":"PAYLOAD","status":"ACTIVE","operator":null,"country":"US","launch_date":"2021-02-04","launch_site_code":"AFETR","launch_vehicle":null,"mission":null,"orbit_class":"UNKNOWN","rcs_meters":null,"size_class":null,"mass_kg":null,"dimensions":null,"purposes":["comms"],"wikipedia_slug":null,"has_3d_model":false,"image_url":null,"decayed_at":null,"tle_current":{"epoch":"2026-05-25T03:42:15.611040Z","epoch_age_seconds":55568,"freshness":"FRESH","line1":"1 47559U 21009M   26145.15434735  .00236062  00000+0  83890-3 0  9991","line2":"2 47559  53.0357 299.6382 0007975 253.8552 106.1595 15.87760230293709","mean_motion":15.8776023,"eccentricity":0.0007975,"inclination_deg":53.0357,"raan_deg":299.6382,"arg_perigee_deg":253.8552,"mean_anomaly_deg":106.1595,"bstar":0.0008389,"rev_number":29370,"period_min":90.69379449062,"perigee_km":303.23121810357,"apogee_km":313.89650597852,"semimajor_km":6686.700862041,"source":"CELESTRAK","updated_at":"2026-05-25T13:38:16.556349Z"}}}